Flag for United Kingdom Weather past 2 weeks in Silverstone, England, United Kingdom

Now
60 °F

Smoke.


Feels Like: 60 °F
Forecast: 58 / 71 °F
Wind: 7 mph from Northeast

Location: Church Lawford

Current Time: Sep 19, 2014 at 3:55:55 AM

Latest Report: Sep 19, 2014 at 3:00 AM


Visibility: 3 mi

Pressure: 29.86 "Hg

Humidity: 92%

Dew point: 58 °F

Location of SilverstoneLocation

Historic Weather in Silverstone — Graph

°F

Silverstone temperature yesterday

Maximum temperature yesterday: 73 °F (at 4:00 PM)
Minimum temperature yesterday: 58 °F (at 7:00 AM)
Average temperature yesterday: 63 °F

Past Weeks' High & Low Weather Summary

 TemperatureHumidityPressure
High73 °F (Sep 18, 4:00 PM)100% (Sep 4, 6:00 AM)30.36 "Hg (Sep 4, 6:00 AM)
Low41 °F (Sep 8, 7:00 AM)40% (Sep 7, 6:00 PM)29.80 "Hg (Sep 18, 4:00 PM)
Average59 °F82%30.10 "Hg
* Reported Sep 4 2:00 AM — Sep 19 2:00 AM, Silverstone, Weather by CustomWeather, © 2014

Note: Actual official high and low records may vary slightly from our data, if they occured in-between our weather recording intervals... More about our weather records

Advertising

Silverstone weather history for previous 24 hours

 ConditionsComfort  
Time TempWeatherWind HumidityBarometerVisibility
2:00 AM
Sep 19
60 °FSmoke.7 mph93%29.85 "Hg2 mi
1:00 AM60 °FSmoke.9 mph94%29.86 "Hg2 mi
12:00 AM60 °FSmoke.8 mph94%29.87 "Hg2 mi
11:00 PM
Sep 18
60 °FFog.8 mph94%29.85 "Hg2 mi
10:00 PM62 °FSmoke.8 mph90%29.85 "Hg3 mi
9:00 PM65 °FSmoke.8 mph83%29.85 "Hg6 mi
8:00 PM68 °FMild.8 mph72%29.83 "Hg9 mi
7:00 PM70 °FMild.8 mph71%29.81 "Hg7 mi
4:00 PM73 °FMild.9 mph68%29.80 "Hg7 mi
2:00 PM70 °FSmoke.10 mph73%29.82 "Hg6 mi
1:00 PM68 °FSmoke.7 mph77%29.84 "Hg4 mi
12:00 PM67 °FSmoke.9 mph80%29.84 "Hg4 mi
11:00 AM63 °FSmoke.6 mph89%29.86 "Hg2 mi
10:00 AM61 °FSmoke.8 mph94%29.86 "Hg2 mi
9:00 AM60 °FFog.8 mph98%29.85 "Hg2 mi
8:00 AM59 °FFog.8 mph99%29.85 "Hg1 mi
7:00 AM58 °FFog.5 mph98%29.85 "Hg1 mi
6:00 AM58 °FFog.6 mph96%29.84 "Hg1 mi
5:00 AM58 °FSmoke.8 mph94%29.85 "Hg2 mi
4:00 AM59 °FSmoke.6 mph93%29.85 "Hg3 mi
3:00 AM59 °FSmoke.8 mph92%29.87 "Hg4 mi
Weather by CustomWeather, © 2014

See weather overviewHow to use our weather pages